WI3X Weather Reports


Display with metric or nautical units.
time (UTC)temp
F
wind
direction
speed
MPH
gust
MPH
rain 1hr
in
rain 24hr
in
rain mn
in
humidity
%
barometer
mb
20260510005003 57 121 0.0 2.0 0.00 0.17 0.17 83 1009.2
20260510004003 58 0 0.0 0.0 0.00 0.17 0.17 82 1009.3
20260510003003 58 121 0.0 1.0 0.00 0.17 0.17 80 1009.2
20260510002003 59 121 0.0 1.0 0.00 0.17 0.17 79 1009.0
20260510001003 60 121 1.0 2.0 0.00 0.17 0.17 78 1008.8
20260510000003 60 121 2.0 3.0 0.00 0.17 0.17 77 1008.8
20260509235003 61 121 1.0 3.0 0.00 0.17 0.17 76 1008.8
20260509234003 61 120 2.0 5.0 0.00 0.17 0.17 75 1008.7
20260509233003 61 123 2.0 4.0 0.00 0.17 0.17 75 1008.6
20260509232024 62 142 3.0 5.0 0.00 0.17 0.17 74 1008.5
20260509231003 62 161 4.0 9.0 0.00 0.17 0.17 72 1008.6
20260509230003 62 139 3.0 7.0 0.00 0.17 0.17 72 1008.6
20260509225004 62 161 2.0 5.0 0.00 0.17 0.17 74 1008.6
20260509224004 62 136 3.0 5.0 0.00 0.17 0.17 73 1008.5
20260509223004 62 142 4.0 8.0 0.00 0.17 0.17 74 1008.7
20260509222004 62 167 3.0 6.0 0.00 0.17 0.17 73 1008.6
20260509221004 62 168 3.0 8.0 0.00 0.17 0.17 73 1008.6
20260509220004 62 199 3.0 7.0 0.00 0.17 0.17 73 1008.7
20260509215025 62 165 3.0 7.0 0.00 0.17 0.17 73 1008.9
20260509214025 62 150 4.0 6.0 0.00 0.17 0.17 73 1008.9
20260509213004 62 124 3.0 7.0 0.00 0.17 0.17 75 1009.0
20260509212004 61 310 1.0 4.0 0.00 0.17 0.17 77 1009.2
20260509211004 61 304 0.0 1.0 0.00 0.17 0.17 78 1009.4
20260509210004 61 304 0.0 1.0 0.00 0.17 0.17 78 1009.4
20260509205025 61 300 2.0 5.0 0.00 0.17 0.17 80 1009.5
20260509204004 60 224 1.0 4.0 0.00 0.17 0.17 79 1009.4
20260509203004 60 161 0.0 5.0 0.00 0.17 0.17 78 1009.3
20260509202004 60 0 0.0 0.0 0.00 0.17 0.17 79 1009.1
20260509201004 60 262 0.0 2.0 0.00 0.17 0.17 79 1009.5
20260509200004 60 263 1.0 4.0 0.00 0.17 0.17 78 1009.6
20260509195004 60 225 1.0 6.0 0.00 0.17 0.17 79 1009.7
20260509194025 60 152 1.0 4.0 0.00 0.17 0.17 76 1009.8
20260509193004 61 204 3.0 6.0 0.00 0.17 0.17 76 1009.8
20260509192004 60 171 2.0 4.0 0.00 0.17 0.17 82 1010.0
20260509191025 59 214 2.0 7.0 0.00 0.17 0.17 83 1010.2
20260509190004 59 163 1.0 5.0 0.00 0.17 0.17 84 1010.3
20260509185005 58 158 5.0 10.0 0.00 0.17 0.17 84 1010.3
20260509184004 58 139 4.0 9.0 0.01 0.17 0.17 88 1010.3
20260509183004 57 129 4.0 10.0 0.01 0.17 0.17 88 1010.5
20260509182005 57 107 2.0 8.0 0.01 0.17 0.17 91 1010.4
20260509181005 56 129 2.0 7.0 0.01 0.17 0.17 89 1010.6
20260509180004 55 161 3.0 7.0 0.01 0.17 0.17 88 1010.7
20260509175025 55 190 2.0 4.0 0.01 0.17 0.17 88 1010.8
20260509174004 55 176 3.0 5.0 0.00 0.16 0.16 89 1010.8
20260509173025 55 153 1.0 4.0 0.00 0.16 0.16 88 1010.8
20260509172004 55 152 2.0 5.0 0.01 0.16 0.16 90 1010.9
20260509171025 54 141 3.0 6.0 0.01 0.16 0.16 89 1011.0
20260509170004 54 121 2.0 5.0 0.03 0.16 0.16 89 1011.0
20260509165004 54 95 3.0 6.0 0.05 0.16 0.16 89 1010.8
20260509164004 54 39 2.0 4.0 0.08 0.16 0.16 88 1010.9
20260509163004 54 17 1.0 3.0 0.11 0.16 0.16 89 1010.8
20260509162004 54 356 1.0 4.0 0.11 0.15 0.15 88 1010.6
20260509161005 55 331 2.0 4.0 0.11 0.15 0.15 89 1010.7
20260509160025 55 262 1.0 3.0 0.10 0.13 0.13 88 1011.0
20260509155004 55 231 1.0 2.0 0.09 0.11 0.11 88 1011.5
20260509154004 55 213 2.0 5.0 0.08 0.08 0.08 86 1011.9
20260509153025 55 201 3.0 6.0 0.05 0.05 0.05 85 1011.9
20260509152004 55 191 5.0 8.0 0.04 0.04 0.04 84 1011.7
20260509151025 56 190 2.0 5.0 0.04 0.04 0.04 85 1011.7
20260509150004 56 186 3.0 7.0 0.03 0.03 0.03 83 1011.7
20260509145004 56 190 5.0 9.0 0.02 0.02 0.02 80 1011.7
20260509144004 57 205 4.0 8.0 0.00 0.00 0.00 77 1011.6
20260509143025 57 213 2.0 6.0 0.00 0.00 0.00 80 1011.5
20260509142004 57 213 3.0 5.0 0.00 0.00 0.00 80 1011.3
20260509141004 57 196 2.0 6.0 0.00 0.00 0.00 80 1011.2
20260509140005 56 184 2.0 3.0 0.00 0.00 0.00 80 1011.2
20260509135004 56 183 1.0 3.0 0.00 0.00 0.00 82 1011.1
20260509134004 56 183 1.0 3.0 0.00 0.00 0.00 81 1011.0
20260509133004 56 181 0.0 4.0 0.00 0.00 0.00 82 1010.9
20260509132004 55 134 2.0 4.0 0.00 0.00 0.00 82 1010.9
20260509131004 55 100 0.0 2.0 0.00 0.00 0.00 81 1010.7
20260509130025 55 0 0.0 0.0 0.00 0.00 0.00 82 1010.8
20260509125025 55 102 0.0 1.0 0.00 0.00 0.00 82 1010.9
20260509124025 54 103 0.0 1.0 0.00 0.00 0.00 81 1010.8
20260509123004 54 103 1.0 4.0 0.00 0.00 0.00 82 1010.9
20260509122025 54 103 2.0 3.0 0.00 0.00 0.00 81 1010.9
20260509121005 54 113 1.0 3.0 0.00 0.00 0.00 83 1010.6
20260509120004 53 94 3.0 7.0 0.00 0.00 0.00 82 1010.9
20260509115004 53 35 1.0 4.0 0.00 0.00 0.00 81 1010.6
20260509114004 53 34 1.0 3.0 0.00 0.00 0.00 82 1010.5
20260509113005 53 34 1.0 3.0 0.00 0.00 0.00 82 1010.5
20260509112025 53 34 0.0 2.0 0.00 0.00 0.00 82 1010.5
20260509111004 52 34 1.0 2.0 0.00 0.00 0.00 82 1010.5
20260509110005 52 34 1.0 4.0 0.00 0.00 0.00 81 1010.5
20260509105004 52 34 0.0 3.0 0.00 0.00 0.00 82 1010.4
20260509104004 52 0 0.0 0.0 0.00 0.00 0.00 82 1010.3
20260509103004 52 34 1.0 3.0 0.00 0.00 0.00 82 1010.3
20260509102025 52 34 1.0 2.0 0.00 0.00 0.00 81 1010.1
20260509101004 52 39 2.0 5.0 0.00 0.00 0.00 81 1010.2
20260509100025 52 56 2.0 5.0 0.00 0.00 0.00 81 1009.8
20260509095004 51 73 1.0 4.0 0.00 0.00 0.00 81 1009.9
20260509094004 51 0 0.0 0.0 0.00 0.00 0.00 81 1010.3
20260509093004 51 0 0.0 0.0 0.00 0.00 0.00 80 1010.2
20260509092005 51 0 0.0 0.0 0.00 0.00 0.00 80 1010.2
20260509091025 51 75 0.0 2.0 0.00 0.00 0.00 80 1010.2
20260509090004 51 75 2.0 4.0 0.00 0.00 0.00 80 1010.2
20260509085004 51 73 2.0 4.0 0.00 0.00 0.00 80 1010.3
20260509084005 51 56 2.0 5.0 0.00 0.00 0.00 80 1010.4
20260509083004 51 31 1.0 3.0 0.00 0.00 0.00 81 1010.5
20260509082025 51 31 2.0 3.0 0.00 0.00 0.00 80 1010.6
20260509081004 51 31 1.0 3.0 0.00 0.00 0.00 81 1010.7
20260509080025 51 30 1.0 3.0 0.00 0.00 0.00 81 1010.7
20260509075004 51 28 1.0 3.0 0.00 0.00 0.00 81 1010.7
20260509074004 51 28 1.0 3.0 0.00 0.00 0.00 81 1010.7
20260509073004 51 27 0.0 2.0 0.00 0.00 0.00 80 1010.9
20260509072004 51 27 0.0 2.0 0.00 0.00 0.00 79 1011.0
20260509071005 52 27 1.0 2.0 0.00 0.00 0.00 77 1011.0
20260509070004 52 27 1.0 3.0 0.00 0.00 0.00 77 1011.0
20260509065004 52 27 2.0 3.0 0.00 0.00 0.00 76 1010.9
20260509064004 53 27 1.0 3.0 0.00 0.00 0.00 74 1010.9
20260509063004 53 27 0.0 2.0 0.00 0.00 0.00 75 1010.9
20260509062025 54 27 1.0 4.0 0.00 0.00 0.00 74 1010.9
20260509061004 54 28 3.0 5.0 0.00 0.00 0.00 75 1011.0
20260509060004 54 34 4.0 7.0 0.00 0.00 0.00 74 1011.1
20260509055025 54 53 1.0 4.0 0.00 0.00 0.00 74 1011.1
20260509054005 54 48 2.0 4.0 0.00 0.00 0.00 74 1011.2
20260509053004 54 47 2.0 4.0 0.00 0.00 0.00 73 1011.3
20260509052004 54 49 2.0 5.0 0.00 0.00 0.00 74 1011.5
20260509051004 54 62 1.0 4.0 0.00 0.00 0.00 75 1011.7
20260509050004 54 67 1.0 3.0 0.00 0.00 0.00 74 1011.6
20260509045025 54 66 2.0 4.0 0.00 0.00 0.00 74 1011.4
20260509044025 54 66 1.0 4.0 0.00 0.00 0.00 73 1011.7
20260509043004 54 65 2.0 4.0 0.00 0.00 0.00 73 1011.6
20260509042026 55 63 2.0 5.0 0.00 0.00 0.00 72 1011.6
20260509041004 55 61 2.0 4.0 0.00 0.00 0.00 71 1011.8
20260509040004 55 62 2.0 3.0 0.00 0.00 0.00 71 1011.7
20260509035025 55 63 0.0 2.0 0.00 0.00 0.00 69 1011.8
20260509034004 56 63 0.0 1.0 0.00 0.00 0.00 69 1012.2
20260509033003 56 76 2.0 4.0 0.00 0.00 0.00 70 1011.9
20260509032004 56 132 1.0 4.0 0.00 0.00 0.00 69 1012.2
20260509031005 56 153 0.0 2.0 0.00 0.00 0.00 68 1012.2
20260509030004 56 153 1.0 4.0 0.00 0.00 0.00 67 1012.2
20260509025003 56 143 4.0 11.0 0.00 0.00 0.00 68 1012.2
20260509024025 55 78 1.0 3.0 0.00 0.00 0.00 70 1011.7
20260509023004 55 74 2.0 4.0 0.00 0.00 0.00 71 1011.6
20260509022003 56 27 2.0 4.0 0.00 0.00 0.00 72 1011.5
20260509021004 56 304 0.0 1.0 0.00 0.00 0.00 69 1011.8
20260509020004 56 304 0.0 2.0 0.00 0.00 0.00 67 1011.8
20260509015004 56 304 0.0 2.0 0.00 0.00 0.00 66 1011.7
20260509014004 56 0 0.0 0.0 0.00 0.00 0.00 64 1011.7
20260509013004 57 304 0.0 1.0 0.00 0.00 0.00 63 1011.6
20260509012025 57 0 0.0 0.0 0.00 0.00 0.00 63 1011.6
20260509011004 57 304 0.0 2.0 0.00 0.00 0.00 62 1011.5
20260509010004 57 304 0.0 1.0 0.00 0.00 0.00 60 1011.4